sat.trackr.live / text

‹ back to catalog

STARLINK-5346

NORAD 56518 · 2023-065R

PAYLOAD ACTIVE UNKNOWN

§ Identity

Operator
Country
US
Launch date
2023-05-14
Launch site
AFETR
Launch vehicle
Mass (kg)
RCS (m²)

Purposes: comms

External: N2YO · Heavens-Above · Gunter

§ Orbital elements

Epoch: 2026-09-20T04:11:10.364928Z

Period
94.27 min
Inclination
43.0009°
Eccentricity
0.0000718
Mean motion
15.27574217 rev/d
Perigee alt
482.6 km
Apogee alt
483.6 km
Semi-major
6,861.2 km
B*
2.0826e-6
RAAN
194.1304°
Arg perigee
262.3064°
Mean anomaly
97.7706°
Rev number
18,634

§ Raw data

STARLINK-53461 56518U 23065R   26263.17442552 -.00000205  00000+0  20826-5 0  99902 56518  43.0009 194.1304 0000718 262.3064  97.7706 15.27574217186343

JSON: /api/v1/satellites/56518 · /tle

For live sub-satellite position, see the globe view (requires WebGL).

§ Visibility from observer

Set your observer location to see the next 7 days of passes ≥ 10°. The values pass through the URL so the page stays shareable.

No JS? Fill the form by hand. The geolocation button needs JavaScript.